DLH4RT KLAX-EDDF

Flight info

Callsign DLH4RT
Flight time N/A
Altitude 33000
Route OSHNN1 BEALE Q842 PICHO/N0487F320 Q842 PATIO DCT DLN/N0480F340 DCT YQL/N0483F330 Q896 MEETO Q959 YVC/N0478F350 DCT 58N100W 6130N09000W 6330N08000W 65N070W/M083F350 DCT EPMAN DCT 67N050W 6630N04000W/M083F370 65N030W 6230N02000W DCT ORTAV/N0480F370 DCT ODPEX DCT NESDI DCT ASNUD DCT NEXUS DCT GODOS DCT LARAS DCT NOLRU DCT DIXAT DIXAT1A
Aircraft A346/H-SDE2E3FGHIJ3J4J5M1RWXY/LB1D1

Departure

Time 2026-05-01 15:33
Airport Los Angeles International Airport (KLAX)

Arrival

Time N/A
Airport Frankfurt Main Airport (EDDF)
Time Latitude Longitude Altitude Speed Heading
2026-05-01 14:50 33.94020 -118.41081 101 ft 0 kts 83°
2026-05-01 14:50 33.94098 -118.41096 100 ft 0 kts 83°
2026-05-01 14:51 33.94100 -118.41082 101 ft 0 kts 83°
2026-05-01 14:51 33.94099 -118.41090 101 ft 0 kts 83°
2026-05-01 15:16 33.94095 -118.41131 104 ft 4 kts 83°
2026-05-01 15:17 33.94095 -118.41182 102 ft 4 kts 117°
2026-05-01 15:18 33.94149 -118.41203 101 ft 1 kts 173°
2026-05-01 15:22 33.94148 -118.41203 101 ft 0 kts 173°
2026-05-01 15:23 33.94141 -118.41202 101 ft 2 kts 172°
2026-05-01 15:23 33.94118 -118.41198 101 ft 4 kts 172°
2026-05-01 15:23 33.94094 -118.41194 100 ft 4 kts 172°
2026-05-01 15:23 33.94057 -118.41188 103 ft 7 kts 172°
2026-05-01 15:24 33.94003 -118.41179 102 ft 9 kts 172°
2026-05-01 15:24 33.93937 -118.41169 102 ft 11 kts 172°
2026-05-01 15:24 33.93858 -118.41156 102 ft 12 kts 172°
2026-05-01 15:24 33.93802 -118.41147 102 ft 6 kts 172°
2026-05-01 15:25 33.93773 -118.41124 103 ft 6 kts 131°
2026-05-01 15:25 33.93768 -118.41082 105 ft 6 kts 85°
2026-05-01 15:25 33.93775 -118.41018 101 ft 9 kts 82°
2026-05-01 15:25 33.93784 -118.40937 102 ft 10 kts 83°
2026-05-01 15:26 33.93794 -118.40844 103 ft 12 kts 83°
2026-05-01 15:26 33.93805 -118.40740 103 ft 13 kts 83°
2026-05-01 15:26 33.93816 -118.40626 102 ft 14 kts 84°
2026-05-01 15:26 33.93827 -118.40505 105 ft 15 kts 84°
2026-05-01 15:27 33.93839 -118.40381 104 ft 15 kts 83°
2026-05-01 15:27 33.93852 -118.40252 106 ft 16 kts 83°
2026-05-01 15:27 33.93866 -118.40120 107 ft 16 kts 83°
2026-05-01 15:28 33.93894 -118.39841 106 ft 17 kts 83°
2026-05-01 15:28 33.93909 -118.39693 105 ft 18 kts 83°
2026-05-01 15:28 33.93925 -118.39539 105 ft 19 kts 83°
2026-05-01 15:29 33.93959 -118.39206 103 ft 21 kts 83°
2026-05-01 15:29 33.93977 -118.39032 102 ft 22 kts 83°
2026-05-01 15:29 33.94016 -118.38653 104 ft 23 kts 83°
2026-05-01 15:30 33.94047 -118.38358 104 ft 16 kts 83°
2026-05-01 15:31 33.94042 -118.38013 102 ft 7 kts 161°
2026-05-01 15:31 33.93976 -118.38074 102 ft 9 kts 260°
2026-05-01 15:32 33.93908 -118.38767 104 ft 92 kts 263°
2026-05-01 15:32 33.93676 -118.41051 105 ft 176 kts 263°
2026-05-01 15:33 33.93201 -118.45626 1225 ft 193 kts 258°
2026-05-01 15:34 33.90651 -118.49589 2214 ft 219 kts 230°